Location: Pornichet
(47.2613°N, 2.3364°W)
Time: 04:27:08
(UTC+02:00)

ISS - Visible Passes

Search period start: 25 May 2024 00:00
Search period end: 04 June 2024 00:00
Orbit: 411 x 416 km, 51.6° (Epoch: 24 May)

Date Brightness Start Highest point End Pass type
(mag) Time Alt. Az. Time Alt. Az. Time Alt. Az.
25 May -3.7 22:26:48 10° WNW 22:30:11 83° SSW 22:33:33 10° ESE visible
26 May -1.7 00:04:22 10° W 00:06:30 16° SW 00:06:45 16° SW visible
26 May -2.2 23:15:38 10° W 23:18:28 25° SW 23:20:21 16° S visible
27 May -2.7 22:27:51 10° WNW 22:31:04 37° SW 22:34:15 10° SSE visible
28 May -1.0 23:20:02 10° WSW 23:20:32 10° SW 23:21:02 10° SW visible
29 May -1.4 22:32:25 10° W 22:34:38 16° SW 22:36:50 10° S visible
